ASIASAT 9

Last updated on Nov. 19, 2019, 4:25 a.m. UTC

1 42942U 17057A   19321.59502072 -.00000353  00000-0  00000-0 0  9999
2 42942   0.0007  95.6091 0002260 150.9489 146.1450  1.00270276  7830
UTC
Height (km)
Latitude
Longitude
Inclination
Orbital Period
UTC large
Height (km)
Speed (km/s)
/
Latitude / Longitude
Inclination (degrees)
Orbital Period (minutes)
Azimuth
Elevation
Range (km)
Doppler Factor
iOS Compass Heading
iOS Angle

Next 30 passes for location: Hong Kong

Rise time Rise Azimuth (degrees) Set time Set Azimuth (degrees) Duration Max altitude (degrees)

No matching passes for this satellites